Regional Weather Roundup
Issued by NWS Goodland, KS

Home | Current Version | Previous Version | Graphics & Text | Print | Product List | Glossary On
Versions: 1 2 3 4 5 6 7 8 9 10 11 12 13 14 15 16 17 18 19 20 21 22 23 24 25 26 27 28 29 30 31 32 33 34 35 36 37 38 39 40 41 42 43 44 45 46 47 48 49 50
000
ASUS43 KGLD 211008
RWRGLD

GOODLAND FORECAST AREA HOURLY WEATHER ROUNDUP
NATIONAL WEATHER SERVICE GOODLAND KS
400 AM MDT TUE OCT 21 2014

...OFFICIAL OBSERVATIONS...

CITY           SKY/WX    TMP DP  RH WIND       PRES   REMARKS
GOODLAND KS    CLEAR     42  39  89 S8        30.08F
HILL CITY KS   CLEAR     42  38  85 NW3       30.08S
IMPERIAL NEB   CLEAR     53  40  61 S10       30.03F
MCCOOK NEB     CLEAR     45  38  76 CALM      30.06S
AKRON CO       CLEAR     53  48  83 S14       30.02F
BURLINGTON CO  CLEAR     52  48  86 S12       30.07F
LIMON CO       CLEAR     42  41  96 E6        30.09F
$$

...UNOFFICIAL OBSERVATIONS...

CITY           SKY/WX    TMP DP  RH WIND       PRES   REMARKS
COLBY KS       CLEAR     43  41  93 S5        30.08F
GOVE KS          N/A     41  32  70 MISG        N/A
NORTON KS      CLEAR     41  36  81 SW7       30.06S
SHARON SPRINGS   N/A     49  45  87 S7          N/A
TRIBUNE KS     CLEAR     46  45  93 SW7       30.09
TRENTON NEB      N/A     47  32  56 S6          N/A
KIT CARSON CO    N/A     45  41  86 CALM        N/A
$$



USA.gov is the U.S. government's official web portal to all federal, state and local government web resources and services.